Temperature
26 27 27 27 27 27 27 27 27 27 27 27 27 26 25 24 24 22 21 20 19 18 18 18 18 18 19 19 19 19 20 20 20 20 20 19 19 18 18 18 19 19 19 19
27 27 27 26 26 27 27 27 27 27 27 27 27 27 24 23 22 21 20 19 19 19 18 18 18 18 18 18 18 18 19 19 19 20 21 21 20 20 19 18 19 19 20 19
26 26 26 26 26 26 26 26 26 26 27 27 27 27 25 23 22 21 20 20 19 19 19 19 19 18 18 18 17 17 17 17 18 19 19 20 19 19 19 18 18 19 19 19
26 26 26 26 26 26 26 26 25 25 26 26 27 26 28 25 24 23 22 21 21 20 20 20 20 19 19 18 18 17 17 17 17 17 17 18 18 18 19 18 18 18 18 17
26 26 26 26 26 26 26 26 25 25 25 25 26 26 27 25 24 24 23 22 21 21 20 20 20 19 19 19 18 18 17 17 17 17 17 17 17 17 17 16 17 17 16 15
26 26 26 26 26 26 26 25 25 25 26 25 26 25 26 26 25 24 23 22 22 21 20 20 19 19 18 18 18 17 17 16 16 16 16 16 16 16 15 15 15 15 15 14
25 26 26 26 26 25 25 25 24 25 25 25 25 24 25 24 24 24 23 23 22 21 20 19 19 18 17 17 17 16 16 16 15 15 15 15 15 15 15 15 14 14 14 14
24 24 26 26 25 25 25 24 23 22 23 24 25 24 25 24 23 23 22 22 22 21 20 19 18 17 16 16 16 16 15 15 15 14 14 15 15 15 14 14 14 14 14 14
25 25 25 25 25 25 25 24 24 23 23 23 24 24 25 24 23 23 23 22 22 21 20 19 18 17 16 15 15 15 15 15 14 14 14 14 14 14 14 14 14 13 14 14
26 24 26 25 25 24 24 25 23 23 22 22 23 24 24 24 24 24 23 23 22 21 20 19 17 16 15 14 14 14 14 14 14 14 14 13 13 13 13 13 13 13 13 13
25 24 25 25 24 25 23 23 23 23 22 21 22 24 25 24 24 23 23 23 22 20 19 18 17 16 15 14 13 13 13 13 13 13 13 12 12 12 12 12 12 12 13 13
25 24 24 25 25 24 24 24 23 22 21 22 21 22 25 24 24 23 23 22 21 19 18 17 16 15 14 14 13 13 13 13 13 12 12 11 11 11 11 11 12 12 12 12
24 23 22 24 24 23 23 23 23 23 22 22 21 22 25 24 23 23 22 22 20 18 18 17 16 15 14 14 13 13 13 12 12 12 11 11 11 11 11 11 12 12 12 12
22 23 22 23 24 24 23 23 23 22 22 22 22 23 24 24 23 23 22 21 20 18 17 17 16 15 14 14 13 13 12 12 12 12 12 11 11 11 11 11 11 12 12 12
22 22 23 23 24 23 23 23 23 22 22 21 22 22 23 23 23 22 21 20 19 18 18 17 16 15 14 13 13 13 12 12 12 12 12 11 11 11 11 11 11 12 11 11
22 21 22 22 23 23 23 23 23 23 23 22 22 22 24 23 22 22 21 20 19 19 18 17 16 15 14 13 13 13 13 12 12 12 12 12 11 11 11 11 11 11 11 11
22 21 21 22 23 22 22 23 23 23 23 23 22 23 23 22 22 21 20 20 19 19 18 17 16 15 14 13 13 13 13 12 12 12 12 12 12 11 11 11 11 11 11 11
20 20 20 21 21 20 23 24 23 22 22 23 23 23 22 22 20 20 19 18 19 18 17 17 16 15 14 13 13 12 12 13 12 12 12 12 12 12 11 11 11 12 11 11
20 20 21 21 21 21 23 23 22 21 21 22 22 22 21 20 20 21 21 19 18 18 17 16 15 15 14 13 13 12 12 12 13 12 12 12 12 12 11 11 11 12 12 11
20 19 20 20 19 19 22 22 21 21 20 22 21 20 20 20 20 21 20 19 18 17 17 16 15 14 14 13 13 12 12 12 12 12 12 12 12 12 12 11 11 11 11 11
20 20 20 20 20 21 22 21 20 18 19 19 19 19 18 19 19 19 19 19 18 17 16 16 15 14 13 13 12 12 12 12 12 12 11 11 12 12 11 11 11 11 11 11
20 20 19 18 18 19 20 19 18 17 18 18 18 18 18 18 18 19 19 19 17 16 16 16 15 14 13 12 12 12 12 12 12 11 11 11 11 12 11 11 11 11 11 11
20 20 19 18 18 19 18 18 17 16 15 15 16 17 17 18 18 18 18 18 18 16 15 15 15 14 12 12 11 12 12 11 11 11 11 11 11 11 11 11 11 11 10 11
20 19 18 17 18 17 16 15 13 13 13 13 14 15 16 17 17 18 18 18 18 16 15 15 15 14 13 12 11 11 11 11 11 11 11 11 11 11 10 11 11 11 10 11
17 17 16 16 15 13 13 11 11 11 11 12 12 13 13 14 15 16 17 17 17 16 15 15 15 15 14 12 12 11 11 11 11 11 11 11 11 11 11 11 11 10 11 11
11 10 10 10 8 9 9 9 9 9 10 10 11 11 11 12 12 12 13 15 15 15 15 14 14 14 14 12 12 11 11 11 11 11 11 11 11 11 11 10 10 10 10 10
Wind_Speed
3 3 1 3 2 2 1 3 3 1 4 7 6 5 3 4 3 3 2 2 2 3 4 3 3 4 6 7 8 8 8 7 7 6 8 8 8 8 8 8 9 10 10 13
7 3 3 4 4 2 1 2 3 3 4 8 10 9 3 1 2 3 2 1 1 2 3 4 4 5 7 8 8 9 9 8 8 7 7 6 6 7 8 9 11 13 13 13
2 5 3 5 4 2 3 6 7 11 13 12 12 14 10 6 4 3 3 3 3 2 1 1 2 4 7 8 10 10 10 10 9 9 7 6 7 7 9 11 12 14 13 12
1 2 1 4 2 6 6 4 9 12 14 13 9 14 10 8 6 4 4 5 6 5 3 4 6 7 8 9 9 10 10 10 9 10 10 11 10 11 11 11 12 10 9 9
2 2 4 6 3 5 7 7 11 13 14 15 12 11 6 7 7 5 4 4 3 3 4 6 9 10 12 12 12 12 12 12 11 11 11 12 13 13 12 12 12 9 6 6
2 4 6 6 2 3 5 10 12 11 11 13 6 7 6 3 3 4 2 0 2 3 5 8 10 11 12 14 14 14 14 14 13 13 13 13 16 16 15 14 11 8 6 6
3 4 3 5 7 5 6 11 9 7 7 6 2 7 4 4 2 1 2 5 6 7 8 10 12 12 13 15 15 15 16 16 15 14 14 15 17 18 17 14 11 9 7 7
5 3 1 3 6 5 5 8 7 7 9 12 9 8 2 3 3 4 6 8 10 11 11 11 12 11 12 14 15 15 16 18 17 15 14 14 15 12 9 9 7 7 6 7
5 4 1 1 2 5 6 5 8 10 12 11 7 5 6 5 7 8 8 10 11 11 11 11 11 11 11 12 12 13 15 16 16 14 10 8 5 4 4 5 5 5 5 6
7 9 4 5 6 3 5 6 5 6 7 10 10 10 6 6 7 6 8 11 11 10 10 10 10 10 9 8 7 9 12 12 11 8 3 2 3 2 2 4 5 5 6 6
9 10 8 7 9 10 6 7 7 7 8 8 10 8 3 6 10 9 12 14 11 10 9 9 9 9 6 4 3 6 10 12 11 10 9 9 7 6 3 2 3 4 4 5
7 9 12 12 5 6 11 12 10 10 12 13 15 13 7 9 12 13 17 16 12 9 8 8 9 7 5 4 2 3 6 9 10 11 11 8 6 6 3 2 1 2 4 4
4 7 12 12 6 6 9 12 13 14 14 15 17 13 7 10 15 19 20 16 11 9 8 8 7 6 5 4 4 2 1 4 5 8 8 5 1 3 2 1 1 2 3 4
5 12 15 18 16 15 13 14 14 15 15 18 20 21 19 19 18 17 14 11 10 9 8 8 7 6 6 5 5 4 1 1 3 6 9 8 5 2 1 3 4 4 5 6
5 12 15 17 17 17 19 20 18 18 20 23 24 23 20 18 17 15 13 10 9 10 10 9 7 7 6 6 5 4 2 2 3 7 12 12 9 7 5 4 5 6 7 8
5 10 14 17 18 18 21 22 21 20 21 23 24 23 19 16 15 15 13 10 10 11 10 9 8 8 8 8 6 4 3 2 3 7 12 13 11 10 7 6 7 8 8 8
7 8 10 12 9 13 13 11 11 12 15 18 20 19 17 19 19 18 15 11 11 11 10 10 9 9 9 8 7 6 3 2 2 5 10 12 12 10 8 6 8 8 8 8
7 8 6 9 10 8 6 4 9 15 17 17 18 17 17 17 16 16 13 12 11 10 10 10 10 10 10 9 8 7 6 3 2 4 8 11 13 12 8 6 7 7 7 7
5 5 6 8 12 13 11 8 9 13 18 17 13 12 14 14 16 16 9 9 11 10 9 10 10 11 11 10 9 8 8 6 4 4 6 9 13 15 13 10 9 7 6 6
6 6 8 11 13 9 9 9 10 13 16 5 13 19 23 24 20 16 14 10 10 10 9 9 10 11 11 11 10 10 10 9 8 6 6 7 10 13 14 14 13 10 8 6
7 10 12 14 14 9 7 9 16 13 12 23 27 27 27 25 23 23 22 18 13 11 11 11 11 12 12 12 11 11 10 10 9 9 9 8 8 10 12 13 12 12 10 8
10 8 7 7 8 6 11 18 14 16 22 25 25 25 24 23 23 23 22 17 13 13 12 13 13 13 13 12 12 11 11 10 10 10 10 9 9 9 11 12 12 12 11 10
6 7 8 7 10 13 16 17 18 19 21 22 23 25 24 24 22 22 21 18 14 16 14 14 14 14 14 14 13 12 11 11 11 12 11 10 10 8 9 10 11 11 11 11
11 9 10 13 12 13 15 16 19 20 21 22 23 24 24 23 23 22 20 18 15 14 16 15 16 15 15 15 14 13 12 12 13 12 11 10 10 9 8 7 9 10 11 12
13 10 10 12 11 14 13 19 21 21 22 23 24 24 24 24 23 22 20 18 15 13 14 16 17 17 17 16 15 14 13 13 13 12 11 11 11 10 9 8 5 7 8 8
8 8 7 7 12 12 14 18 21 21 22 22 23 23 23 22 22 21 20 18 16 13 13 16 18 18 18 17 16 15 14 14 13 12 12 11 11 10 10 9 7 7 5 10
Wind_Direction
202 227 109 73 34 23 283 266 269 301 347 310 295 291 321 343 15 46 59 97 145 160 169 182 195 212 217 214 215 215 220 208 206 211 220 227 230 232 236 236 237 248 261 271
203 122 111 129 132 141 172 277 295 264 305 305 294 280 210 253 33 21 30 76 162 201 205 220 249 263 268 265 262 261 254 252 243 230 218 217 217 225 234 246 248 247 249 253
55 57 127 171 180 250 284 312 315 309 306 275 276 272 197 176 150 101 84 95 104 103 85 316 302 299 294 289 285 283 281 272 265 258 250 238 227 227 227 238 245 245 245 249
202 80 173 232 270 299 294 326 307 302 298 296 284 288 258 181 170 130 116 104 93 79 47 13 351 340 327 317 306 297 289 279 269 260 256 253 249 249 246 242 241 238 233 228
238 255 268 267 288 298 316 314 294 289 286 285 269 268 269 176 204 159 132 108 80 42 358 345 338 331 327 324 319 312 305 300 294 282 271 266 263 261 256 244 236 220 201 200
300 261 274 290 264 294 305 291 275 260 264 266 274 277 271 196 197 164 148 144 312 317 325 327 325 323 320 318 314 310 306 300 293 282 270 259 256 253 246 232 218 202 192 191
278 244 243 264 254 228 296 318 307 279 261 286 69 279 281 93 156 210 296 305 301 302 309 316 320 319 315 312 310 306 300 293 285 272 258 248 245 243 236 225 214 204 198 196
309 314 350 274 277 298 326 319 324 309 303 309 289 268 286 148 206 236 266 288 296 297 297 304 311 309 307 309 311 310 303 295 286 274 261 251 248 244 232 219 209 205 202 186
297 313 150 234 255 285 295 308 328 294 285 283 273 266 265 204 220 238 266 288 295 300 301 299 301 299 304 312 322 327 319 305 294 282 273 259 246 221 191 175 186 186 167 155
285 288 265 181 198 202 289 307 291 295 299 294 286 277 263 210 240 267 301 309 307 307 301 299 297 298 307 319 338 355 354 340 327 308 299 44 55 75 123 164 159 146 149 156
277 278 266 225 243 265 229 243 264 283 283 282 288 297 358 271 284 284 309 314 304 301 304 303 297 296 292 299 351 19 22 20 23 40 54 46 29 13 15 50 103 124 144 152
273 276 278 270 268 276 266 260 258 269 275 263 272 282 298 286 277 277 297 305 300 292 291 295 297 287 269 273 301 9 36 44 51 62 71 61 15 346 356 48 84 164 169 164
284 267 274 270 221 215 240 246 260 270 275 272 272 274 283 285 283 285 291 293 287 273 277 291 288 266 258 268 275 291 52 77 89 101 104 109 55 330 356 78 110 101 109 111
275 262 268 279 289 301 276 262 256 263 267 273 271 280 292 298 308 314 304 294 277 263 270 281 275 253 252 259 271 268 251 172 159 156 149 159 174 186 95 71 80 92 107 113
259 267 272 277 283 281 275 274 271 261 262 272 280 285 291 297 306 314 309 296 267 260 267 269 264 255 250 251 258 266 271 253 212 181 169 173 177 174 155 133 126 127 125 119
269 283 284 280 277 278 276 272 270 269 267 268 273 277 284 299 301 301 303 288 269 267 267 263 254 250 248 248 251 257 277 292 232 185 174 176 175 165 154 146 139 133 125 122
268 270 288 285 297 295 278 274 271 274 273 275 277 285 301 309 306 306 304 286 272 274 267 256 248 241 241 242 244 247 253 268 221 173 173 172 163 152 146 148 139 131 126 128
254 269 268 290 297 270 294 324 296 294 291 291 287 291 301 310 315 303 285 274 274 275 265 252 243 232 228 233 236 235 244 240 204 159 161 163 155 149 145 143 132 122 119 127
227 248 277 283 289 289 293 296 314 309 299 298 308 324 326 330 313 296 286 247 253 261 255 247 239 230 224 227 228 228 236 238 223 180 160 161 162 160 161 161 153 141 132 130
199 229 265 281 289 289 321 12 350 314 296 2 341 327 321 314 302 300 321 297 258 238 230 226 224 222 218 220 222 227 234 234 226 201 178 167 163 166 167 161 159 160 156 143
258 261 263 278 281 278 346 356 333 310 315 328 319 312 306 299 293 296 298 291 265 240 218 207 210 210 211 210 214 228 239 235 222 196 180 172 159 157 158 158 163 168 168 155
290 283 282 282 275 274 355 335 320 305 307 307 306 303 300 297 293 293 292 288 260 241 223 204 201 205 204 203 210 226 232 227 210 189 183 174 166 165 158 163 168 171 167 161
258 285 297 284 276 304 318 315 328 335 328 322 316 310 303 298 295 294 294 291 268 240 227 208 201 200 200 201 210 219 214 206 200 191 187 180 172 167 163 168 169 170 173 175
281 291 283 283 281 316 329 351 355 350 342 338 334 326 315 303 296 293 293 294 283 247 227 210 201 199 199 199 205 213 207 197 200 198 189 182 175 171 169 177 179 179 181 182
318 322 309 297 332 342 344 354 347 344 342 342 342 343 338 329 317 307 299 293 289 262 234 214 204 201 198 196 201 207 205 199 202 199 191 188 186 182 179 184 169 192 190 185
26 22 2 353 351 329 336 343 346 344 341 338 336 339 343 343 337 329 318 309 301 277 240 221 212 204 197 193 198 199 197 198 204 203 199 198 196 185 187 175 159 66 83 115
Height
1518 1514 1513 1513 1512 1512 1512 1511 1510 1509 1509 1507 1506 1507 1508 1509 1507 1508 1508 1509 1510 1510 1510 1510 1511 1512 1513 1513 1514 1514 1514 1514 1513 1513 1512 1512 1512 1514 1516 1517 1517 1518 1518 1519
1514 1514 1514 1514 1514 1512 1511 1513 1512 1508 1507 1507 1505 1502 1506 1509 1509 1508 1508 1509 1509 1509 1509 1510 1510 1510 1511 1511 1510 1510 1509 1509 1508 1507 1505 1503 1503 1504 1506 1508 1509 1510 1509 1509
1514 1517 1515 1514 1513 1513 1513 1514 1514 1513 1506 1501 1502 1498 1500 1505 1507 1508 1508 1509 1509 1508 1509 1509 1509 1508 1508 1507 1507 1506 1504 1503 1501 1499 1498 1495 1494 1492 1493 1496 1498 1499 1498 1498
1514 1515 1515 1513 1514 1514 1513 1512 1513 1511 1509 1503 1500 1505 1489 1495 1501 1506 1508 1508 1508 1508 1508 1508 1508 1507 1506 1505 1503 1501 1499 1497 1495 1493 1490 1488 1486 1484 1484 1486 1489 1490 1488 1487
1515 1515 1515 1515 1514 1514 1512 1512 1511 1508 1507 1505 1496 1502 1489 1493 1497 1502 1505 1507 1507 1507 1507 1507 1506 1504 1502 1501 1498 1495 1492 1489 1487 1485 1482 1480 1478 1478 1479 1481 1482 1481 1480 1480
1515 1514 1513 1511 1512 1514 1512 1511 1506 1505 1501 1507 1497 1504 1495 1488 1494 1499 1503 1505 1506 1506 1506 1505 1504 1502 1499 1497 1494 1490 1487 1483 1479 1477 1475 1474 1474 1474 1476 1476 1475 1474 1474 1475
1515 1512 1512 1513 1512 1512 1511 1514 1515 1510 1504 1499 1498 1504 1494 1494 1496 1499 1501 1503 1503 1504 1504 1503 1501 1499 1496 1493 1490 1486 1482 1478 1475 1472 1470 1469 1469 1469 1470 1470 1470 1470 1470 1471
1521 1520 1511 1512 1512 1512 1514 1516 1525 1531 1519 1506 1497 1500 1490 1494 1497 1499 1500 1500 1500 1500 1500 1500 1498 1495 1493 1490 1487 1483 1478 1473 1470 1468 1466 1464 1464 1463 1463 1464 1465 1466 1467 1468
1517 1517 1511 1514 1514 1513 1512 1512 1513 1518 1514 1515 1500 1494 1490 1492 1495 1496 1497 1497 1496 1496 1496 1496 1494 1492 1489 1486 1483 1478 1473 1468 1464 1462 1461 1461 1460 1459 1458 1460 1462 1464 1465 1467
1510 1516 1508 1510 1513 1514 1512 1510 1515 1517 1523 1517 1502 1494 1491 1490 1490 1490 1491 1492 1492 1492 1492 1491 1490 1488 1485 1482 1479 1475 1469 1463 1459 1458 1458 1459 1459 1458 1459 1460 1462 1464 1465 1467
1510 1515 1509 1508 1509 1506 1512 1513 1512 1511 1514 1520 1513 1497 1483 1487 1488 1488 1488 1487 1488 1488 1487 1487 1486 1484 1482 1480 1477 1473 1468 1463 1458 1456 1458 1459 1460 1461 1462 1463 1465 1466 1467 1469
1509 1510 1510 1503 1499 1505 1505 1506 1508 1517 1514 1508 1509 1500 1480 1485 1485 1485 1484 1484 1484 1485 1484 1482 1481 1480 1479 1478 1476 1472 1468 1464 1460 1459 1459 1461 1463 1465 1466 1466 1467 1468 1469 1470
1510 1515 1516 1506 1504 1506 1506 1502 1502 1502 1503 1503 1504 1494 1477 1481 1481 1480 1478 1478 1480 1481 1479 1478 1477 1477 1476 1475 1474 1471 1468 1465 1462 1460 1462 1464 1466 1468 1469 1469 1469 1470 1470 1471
1514 1511 1513 1513 1502 1496 1498 1496 1499 1502 1503 1497 1491 1484 1477 1476 1476 1475 1474 1474 1476 1476 1475 1473 1473 1473 1472 1472 1472 1470 1468 1466 1464 1462 1462 1464 1466 1467 1469 1470 1471 1471 1472 1472
1512 1508 1502 1498 1494 1494 1494 1492 1491 1494 1494 1494 1486 1481 1476 1473 1473 1473 1472 1471 1471 1472 1471 1470 1469 1469 1469 1469 1469 1469 1467 1465 1463 1463 1462 1464 1465 1467 1469 1470 1471 1472 1474 1474
1510 1510 1503 1500 1493 1490 1489 1485 1484 1484 1483 1481 1479 1476 1471 1470 1470 1470 1469 1468 1467 1468 1468 1467 1466 1466 1466 1466 1466 1466 1465 1464 1462 1462 1462 1463 1465 1468 1470 1471 1473 1474 1475 1477
1506 1508 1506 1498 1489 1492 1488 1478 1478 1478 1474 1474 1474 1470 1467 1468 1467 1466 1465 1464 1463 1463 1463 1463 1463 1463 1463 1463 1463 1464 1463 1462 1461 1461 1461 1462 1464 1467 1470 1472 1474 1476 1477 1478
1508 1508 1505 1498 1497 1501 1480 1474 1477 1477 1474 1470 1468 1467 1468 1467 1466 1464 1462 1461 1460 1459 1459 1459 1460 1460 1460 1460 1461 1461 1461 1461 1460 1460 1460 1461 1463 1466 1469 1471 1474 1476 1478 1480
1507 1507 1501 1498 1495 1487 1477 1474 1475 1477 1474 1469 1467 1468 1468 1467 1465 1458 1455 1456 1456 1455 1455 1455 1455 1456 1457 1457 1458 1458 1459 1459 1459 1459 1459 1460 1462 1464 1467 1469 1472 1475 1478 1480
1505 1505 1502 1496 1501 1498 1480 1477 1481 1480 1474 1467 1470 1470 1469 1466 1460 1454 1454 1454 1453 1451 1450 1449 1450 1451 1452 1453 1454 1455 1456 1456 1457 1457 1458 1459 1460 1462 1464 1467 1470 1474 1477 1479
1499 1498 1497 1495 1493 1483 1477 1482 1482 1487 1480 1474 1472 1470 1467 1462 1458 1454 1451 1450 1449 1447 1445 1444 1444 1445 1447 1449 1450 1451 1452 1453 1454 1454 1455 1457 1458 1460 1462 1465 1468 1471 1474 1477
1498 1494 1494 1496 1499 1493 1481 1484 1487 1486 1479 1474 1469 1464 1459 1455 1451 1447 1445 1443 1442 1441 1440 1439 1439 1440 1441 1443 1445 1447 1448 1449 1450 1451 1453 1455 1456 1459 1460 1463 1465 1468 1471 1474
1495 1492 1493 1495 1495 1487 1487 1486 1484 1481 1476 1472 1466 1460 1454 1449 1445 1441 1438 1436 1435 1434 1433 1433 1433 1434 1436 1438 1440 1442 1444 1445 1447 1449 1450 1452 1454 1456 1458 1460 1463 1466 1468 1472
1489 1490 1491 1491 1485 1487 1487 1486 1484 1482 1477 1472 1465 1458 1451 1444 1439 1435 1433 1430 1429 1428 1426 1426 1427 1428 1429 1432 1435 1438 1440 1442 1444 1446 1447 1449 1451 1454 1456 1459 1461 1464 1467 1470
1492 1491 1491 1490 1491 1492 1489 1489 1485 1480 1475 1470 1463 1457 1451 1443 1437 1432 1428 1425 1423 1422 1421 1419 1419 1420 1423 1425 1429 1433 1436 1438 1441 1443 1445 1447 1449 1452 1454 1457 1459 1461 1464 1467
1507 1508 1506 1504 1506 1501 1496 1491 1485 1479 1474 1468 1462 1454 1448 1443 1437 1431 1426 1421 1417 1415 1414 1413 1413 1413 1416 1419 1423 1427 1430 1434 1437 1439 1441 1444 1447 1449 1451 1454 1456 1458 1461 1464